RADUGA 15 [-]

Last updated on Nov. 12, 2019, 4:19 a.m. UTC

1 15057U 84063A   19315.42248591 -.00000349  00000-0  00000+0 0  9999
2 15057  13.0886 332.3457 0001883  78.4945 278.7154  1.00298660116925
UTC
Height (km)
Latitude
Longitude
Inclination
Orbital Period
UTC large
Height (km)
Speed (km/s)
/
Latitude / Longitude
Inclination (degrees)
Orbital Period (minutes)
Azimuth
Elevation
Range (km)
Doppler Factor
iOS Compass Heading
iOS Angle

Next 30 passes for location: Hong Kong

Rise time Rise Azimuth (degrees) Set time Set Azimuth (degrees) Duration Max altitude (degrees)

No matching passes for this satellites